Waarnemingen

Advertentie
Mijn weer
Civitavecchia, Italië (16214): temperatuur & dauwpunt: 15.05.2018 19:00:00 - 21.05.2018 19:00:00 (CEST)Civitavecchia, Italië (16214): windsnelheid: 15.05.2018 19:00:00 - 21.05.2018 19:00:00 (CEST)Civitavecchia, Italië (16214): windrichting: 15.05.2018 19:00:00 - 21.05.2018 19:00:00 (CEST)Civitavecchia, Italië (16214): luchtdruk: 15.05.2018 19:00:00 - 21.05.2018 19:00:00 (CEST)Civitavecchia, Italië (16214): zicht: 15.05.2018 19:00:00 - 21.05.2018 19:00:00 (CEST)Civitavecchia, Italië (16214): Zonneschijnduur: 15.05.2018 19:00:00 - 21.05.2018 19:00:00 (CEST)
Datum & Tijd tt [°C] td [°C] ff [km/u] ff [kn] dd ppp [hPa] vv [km] sd [min]
21.05.2018 19:00:00 - - - - - - - -
21.05.2018 18:00:00 - - - - - - - -
21.05.2018 17:00:00 21,4 16,0 15 8 Z 1011,5 20 0
21.05.2018 16:00:00 - - - - - - - -
21.05.2018 15:00:00 - - - - - - - -
21.05.2018 14:00:00 22,5 14,3 5 3 ZO 1012,3 40 0
21.05.2018 13:00:00 - - - - - - - -
21.05.2018 12:00:00 - - - - - - - -
21.05.2018 11:00:00 19,7 16,6 8 4 ZZW 1013,2 12 9
21.05.2018 10:00:00 - - - - - - - -
21.05.2018 09:00:00 - - - - - - - -
21.05.2018 08:00:00 20,5 13,8 2 1 N 1012,2 18 48
21.05.2018 07:00:00 - - - - - - - -
21.05.2018 06:00:00 - - - - - - - -
21.05.2018 05:00:00 18,4 13,4 5 3 OZO 1011,8 - 0
21.05.2018 04:00:00 - - - - - - - -
21.05.2018 03:00:00 - - - - - - - -
21.05.2018 02:00:00 18,8 12,1 2 1 N 1012,1 - 0
21.05.2018 01:00:00 - - - - - - - -
21.05.2018 00:00:00 - - - - - - - -
20.05.2018 23:00:00 19,7 12,4 4 2 ONO 1012,8 - 0
20.05.2018 22:00:00 - - - - - - - -
20.05.2018 21:00:00 - - - - - - - -
20.05.2018 20:00:00 21,3 16,2 8 4 NW 1012,5 - 30
20.05.2018 19:00:00 - - - - - - - -
20.05.2018 18:00:00 - - - - - - - -
20.05.2018 17:00:00 23,5 16,0 13 7 NW 1012,3 - 60
20.05.2018 16:00:00 - - - - - - - -
20.05.2018 15:00:00 - - - - - - - -
20.05.2018 14:00:00 23,1 14,7 9 5 ZW 1013,6 - 60
20.05.2018 13:00:00 - - - - - - - -
20.05.2018 12:00:00 - - - - - - - -
20.05.2018 11:00:00 22,0 15,7 5 3 WZW 1013,8 - 60
20.05.2018 10:00:00 - - - - - - - -
20.05.2018 09:00:00 - - - - - - - -
20.05.2018 08:00:00 19,0 14,3 2 1 NW 1014,1 - 42
20.05.2018 07:00:00 - - - - - - - -
20.05.2018 06:00:00 - - - - - - - -
20.05.2018 05:00:00 16,3 13,6 4 2 O 1013,5 - 0
20.05.2018 04:00:00 - - - - - - - -
20.05.2018 03:00:00 - - - - - - - -
20.05.2018 02:00:00 16,5 11,7 2 1 OZO 1014,0 - 0
20.05.2018 01:00:00 - - - - - - - -
20.05.2018 00:00:00 - - - - - - - -
19.05.2018 23:00:00 17,6 13,7 11 6 N 1014,2 - 0
19.05.2018 22:00:00 - - - - - - - -
19.05.2018 21:00:00 - - - - - - - -
19.05.2018 20:00:00 20,1 15,7 15 8 WNW 1013,7 - 60
19.05.2018 19:00:00 - - - - - - - -
19.05.2018 18:00:00 - - - - - - - -
19.05.2018 17:00:00 21,9 15,2 18 10 WNW 1013,9 - 60
19.05.2018 16:00:00 - - - - - - - -
19.05.2018 15:00:00 - - - - - - - -
19.05.2018 14:00:00 21,8 14,8 9 5 W 1014,8 - 60
19.05.2018 13:00:00 - - - - - - - -
19.05.2018 12:00:00 - - - - - - - -
19.05.2018 11:00:00 21,1 16,1 11 6 ZW 1015,1 - 60
19.05.2018 10:00:00 - - - - - - - -
19.05.2018 09:00:00 - - - - - - - -
19.05.2018 08:00:00 20,1 13,6 5 3 OZO 1014,3 - 60
19.05.2018 07:00:00 - - - - - - - -
19.05.2018 06:00:00 - - - - - - - -
19.05.2018 05:00:00 15,2 11,7 4 2 N 1013,4 - 0
19.05.2018 04:00:00 - - - - - - - -
19.05.2018 03:00:00 - - - - - - - -
19.05.2018 02:00:00 16,6 11,6 8 4 OZO 1014,1 - 0
19.05.2018 01:00:00 - - - - - - - -
19.05.2018 00:00:00 - - - - - - - -
18.05.2018 23:00:00 19,1 14,4 15 8 NNW 1014,8 - 0
18.05.2018 22:00:00 - - - - - - - -
18.05.2018 21:00:00 - - - - - - - -
18.05.2018 20:00:00 19,9 14,7 18 10 NW 1014,2 30 60
18.05.2018 19:00:00 - - - - - - - -
18.05.2018 18:00:00 - - - - - - - -
18.05.2018 17:00:00 21,8 15,3 16 9 NW 1014,1 40 60
18.05.2018 16:00:00 - - - - - - - -
18.05.2018 15:00:00 - - - - - - - -
18.05.2018 14:00:00 21,0 14,2 13 7 WNW 1015,1 40 60
18.05.2018 13:00:00 - - - - - - - -
18.05.2018 12:00:00 - - - - - - - -
18.05.2018 11:00:00 19,6 13,9 8 4 ZW 1015,3 20 60
18.05.2018 10:00:00 - - - - - - - -
18.05.2018 09:00:00 - - - - - - - -
18.05.2018 08:00:00 17,4 12,1 8 4 OZO 1015,1 20 60
18.05.2018 07:00:00 - - - - - - - -
18.05.2018 06:00:00 - - - - - - - -
18.05.2018 05:00:00 13,6 11,1 8 4 NNW 1014,7 - 0
18.05.2018 04:00:00 - - - - - - - -
18.05.2018 03:00:00 - - - - - - - -
18.05.2018 02:00:00 14,6 11,3 8 4 N 1015,4 - 0
18.05.2018 01:00:00 - - - - - - - -
18.05.2018 00:00:00 - - - - - - - -
17.05.2018 23:00:00 15,8 12,4 5 3 NNO 1016,1 - 0
17.05.2018 22:00:00 - - - - - - - -
17.05.2018 21:00:00 - - - - - - - -
17.05.2018 20:00:00 18,5 13,8 9 5 NW 1015,7 20 60
17.05.2018 19:00:00 - - - - - - - -
17.05.2018 18:00:00 - - - - - - - -
17.05.2018 17:00:00 19,6 14,1 11 6 WZW 1015,3 20 60
17.05.2018 16:00:00 - - - - - - - -
17.05.2018 15:00:00 - - - - - - - -
17.05.2018 14:00:00 19,9 14,3 11 6 ZW 1016,0 20 60
17.05.2018 13:00:00 - - - - - - - -
17.05.2018 12:00:00 - - - - - - - -
17.05.2018 11:00:00 19,5 13,5 13 7 ZZO 1016,1 20 60
17.05.2018 10:00:00 - - - - - - - -
17.05.2018 09:00:00 - - - - - - - -
17.05.2018 08:00:00 17,3 12,7 8 4 O 1016,1 20 54
17.05.2018 07:00:00 - - - - - - - -
17.05.2018 06:00:00 - - - - - - - -
17.05.2018 05:00:00 14,3 11,6 8 4 O 1015,4 - 0
17.05.2018 04:00:00 - - - - - - - -
17.05.2018 03:00:00 - - - - - - - -
17.05.2018 02:00:00 14,9 12,3 8 4 O 1015,6 - 0
17.05.2018 01:00:00 - - - - - - - -
17.05.2018 00:00:00 - - - - - - - -
16.05.2018 23:00:00 16,5 13,0 8 4 ZZO 1015,8 - 0
16.05.2018 22:00:00 - - - - - - - -
16.05.2018 21:00:00 - - - - - - - -
16.05.2018 20:00:00 17,2 12,8 8 4 ZZW 1015,1 18 48
16.05.2018 19:00:00 - - - - - - - -
16.05.2018 18:00:00 - - - - - - - -
16.05.2018 17:00:00 17,7 13,4 15 8 ZZW 1015,1 10 18
16.05.2018 16:00:00 - - - - - - - -
16.05.2018 15:00:00 - - - - - - - -
16.05.2018 14:00:00 16,2 14,1 16 9 Z 1016,0 7 0
16.05.2018 13:00:00 - - - - - - - -
16.05.2018 12:00:00 - - - - - - - -
16.05.2018 11:00:00 17,2 12,8 16 9 ZO 1015,7 15 26
16.05.2018 10:00:00 - - - - - - - -
16.05.2018 09:00:00 - - - - - - - -
16.05.2018 08:00:00 14,9 10,7 13 7 OZO 1015,0 18 24
16.05.2018 07:00:00 - - - - - - - -
16.05.2018 06:00:00 - - - - - - - -
16.05.2018 05:00:00 13,4 10,5 13 7 O 1014,1 - 0
16.05.2018 04:00:00 - - - - - - - -
16.05.2018 03:00:00 - - - - - - - -
16.05.2018 02:00:00 14,0 10,1 13 7 OZO 1014,5 - 0
16.05.2018 01:00:00 - - - - - - - -
16.05.2018 00:00:00 - - - - - - - -
15.05.2018 23:00:00 14,7 10,8 13 7 O 1014,1 - 0
15.05.2018 22:00:00 - - - - - - - -
15.05.2018 21:00:00 - - - - - - - -
15.05.2018 20:00:00 16,0 10,8 15 8 Z 1013,2 25 48
15.05.2018 19:00:00 - - - - - - - -

tt = temperatuur
td = dauwpunt
ff = windsnelheid
dd = windrichting
ppp = luchtdruk
vv = zicht
sd = Zonneschijnduur

Weerstations in de omgeving